Time,TemperatureF,DewpointF,PressureIn,WindDirection,WindDirectionDegrees,WindSpeedMPH,WindSpeedGustMPH,Humidity,HourlyPrecipIn,Conditions,Clouds,dailyrainin,SoftwareType,DateUTC
2013-01-08 00:01:00,34.0,34.0,29.95,SW,225,1.0,0.0,100,0.00,,,0.07,,2013-01-08 08:01:00,
2013-01-08 00:11:00,34.0,34.0,29.95,SW,225,1.0,0.0,100,0.00,,,0.07,,2013-01-08 08:11:00,
2013-01-08 00:22:00,34.0,34.0,29.96,North,0,0.0,0.0,100,0.00,,,0.07,,2013-01-08 08:22:00,
2013-01-08 00:32:00,34.0,34.0,29.97,North,0,0.0,0.0,100,0.00,,,0.07,,2013-01-08 08:32:00,
2013-01-08 00:42:00,34.0,34.0,29.97,North,0,0.0,0.0,100,0.00,,,0.07,,2013-01-08 08:42:00,
2013-01-08 00:52:00,34.0,34.0,29.98,SSW,203,0.0,0.0,100,0.00,,,0.07,,2013-01-08 08:52:00,
2013-01-08 01:02:00,34.0,34.0,29.98,North,0,0.0,0.0,100,0.00,,,0.07,,2013-01-08 09:02:00,
2013-01-08 01:11:00,34.0,34.0,30.00,North,0,0.0,0.0,100,0.00,,,0.07,,2013-01-08 09:11:00,
2013-01-08 01:22:00,34.0,34.0,30.00,North,0,0.0,0.0,100,0.00,,,0.07,,2013-01-08 09:22:00,
2013-01-08 01:32:00,34.0,34.0,30.00,North,0,0.0,0.0,100,0.01,,,0.08,,2013-01-08 09:32:00,
2013-01-08 01:42:00,34.0,34.0,30.00,North,0,0.0,0.0,100,0.01,,,0.08,,2013-01-08 09:42:00,
2013-01-08 01:52:00,33.0,33.0,30.01,WNW,293,6.0,15.0,100,0.01,,,0.08,,2013-01-08 09:52:00,
2013-01-08 02:02:00,34.0,34.0,30.01,WSW,248,0.0,0.0,100,0.01,,,0.08,,2013-01-08 10:02:00,
2013-01-08 02:11:00,34.0,34.0,30.01,WSW,248,0.0,0.0,100,0.01,,,0.08,,2013-01-08 10:11:00,
2013-01-08 02:22:00,34.0,34.0,30.02,SSW,203,5.0,7.0,100,0.01,,,0.08,,2013-01-08 10:22:00,
2013-01-08 02:32:00,33.0,33.0,30.03,SSW,203,0.0,0.0,100,0.00,,,0.08,,2013-01-08 10:32:00,
2013-01-08 02:42:00,33.0,33.0,30.03,SSW,203,0.0,0.0,100,0.00,,,0.08,,2013-01-08 10:42:00,
2013-01-08 02:52:00,34.0,34.0,30.03,SSW,203,0.0,0.0,100,0.00,,,0.08,,2013-01-08 10:52:00,
2013-01-08 03:02:00,33.0,33.0,30.03,SSW,203,0.0,0.0,100,0.00,,,0.08,,2013-01-08 11:02:00,
2013-01-08 03:11:00,33.0,33.0,30.03,SSW,203,0.0,0.0,100,0.00,,,0.08,,2013-01-08 11:11:00,
2013-01-08 03:22:00,33.0,33.0,30.03,SSW,203,0.0,0.0,100,0.00,,,0.08,,2013-01-08 11:22:00,
2013-01-08 03:32:00,33.0,33.0,30.03,SSW,203,0.0,0.0,100,0.00,,,0.08,,2013-01-08 11:32:00,
2013-01-08 03:42:00,33.0,33.0,30.03,SSW,203,0.0,0.0,100,0.00,,,0.08,,2013-01-08 11:42:00,
2013-01-08 03:53:00,33.0,33.0,30.04,SW,225,5.0,9.0,100,0.00,,,0.08,,2013-01-08 11:53:00,
2013-01-08 04:02:00,33.0,33.0,30.04,South,180,0.0,9.0,100,0.00,,,0.08,,2013-01-08 12:02:00,
2013-01-08 04:11:00,33.0,33.0,30.04,South,180,0.0,9.0,100,0.00,,,0.08,,2013-01-08 12:11:00,
2013-01-08 04:22:00,33.0,33.0,30.04,SW,225,0.0,9.0,100,0.00,,,0.08,,2013-01-08 12:22:00,
2013-01-08 04:32:00,33.0,33.0,30.04,SW,225,7.0,10.0,100,0.00,,,0.08,,2013-01-08 12:32:00,
2013-01-08 04:42:00,33.0,33.0,30.04,SW,225,7.0,10.0,100,0.00,,,0.08,,2013-01-08 12:42:00,
2013-01-08 04:53:00,34.0,34.0,30.04,SW,225,1.0,0.0,100,0.00,,,0.08,,2013-01-08 12:53:00,
2013-01-08 05:02:00,33.0,33.0,30.04,WSW,248,0.0,0.0,100,0.00,,,0.07,,2013-01-08 13:02:00,
2013-01-08 05:12:00,33.0,33.0,30.04,WSW,248,0.0,0.0,100,0.00,,,0.07,,2013-01-08 13:12:00,
2013-01-08 05:22:00,33.0,33.0,30.04,SW,225,1.0,7.0,100,0.00,,,0.07,,2013-01-08 13:22:00,
2013-01-08 05:32:00,33.0,33.0,30.04,SW,225,1.0,0.0,100,0.00,,,0.07,,2013-01-08 13:32:00,
2013-01-08 05:42:00,33.0,33.0,30.04,SW,225,1.0,0.0,100,0.00,,,0.07,,2013-01-08 13:42:00,
2013-01-08 05:52:00,34.0,34.0,30.05,SW,225,0.0,0.0,100,0.00,,,0.07,,2013-01-08 13:52:00,
2013-01-08 06:02:00,34.0,34.0,30.05,SW,225,0.0,0.0,100,0.00,,,0.07,,2013-01-08 14:02:00,
2013-01-08 06:12:00,34.0,34.0,30.05,SW,225,0.0,0.0,100,0.00,,,0.07,,2013-01-08 14:12:00,
2013-01-08 06:22:00,33.0,33.0,30.06,SW,225,5.0,10.0,100,0.00,,,0.07,,2013-01-08 14:22:00,
2013-01-08 06:32:00,33.0,33.0,30.07,WSW,248,0.0,0.0,100,0.00,,,0.07,,2013-01-08 14:32:00,
2013-01-08 06:42:00,33.0,33.0,30.07,WSW,248,0.0,0.0,100,0.00,,,0.07,,2013-01-08 14:42:00,
2013-01-08 06:53:00,34.0,34.0,30.07,WSW,248,0.0,0.0,100,0.00,,,0.07,,2013-01-08 14:53:00,
2013-01-08 07:02:00,33.0,33.0,30.08,WSW,248,0.0,0.0,100,0.00,,,0.07,,2013-01-08 15:02:00,
2013-01-08 07:11:00,33.0,33.0,30.08,WSW,248,0.0,0.0,100,0.00,,,0.07,,2013-01-08 15:11:00,
2013-01-08 07:22:00,33.0,33.0,30.08,WSW,248,0.0,0.0,100,0.00,,,0.07,,2013-01-08 15:22:00,
2013-01-08 07:32:00,32.0,32.0,30.08,SSW,203,6.0,6.0,100,0.00,,,0.07,,2013-01-08 15:32:00,
2013-01-08 07:42:00,32.0,32.0,30.08,SSW,203,6.0,6.0,100,0.00,,,0.07,,2013-01-08 15:42:00,
2013-01-08 07:53:00,32.0,32.0,30.08,SSW,203,0.0,0.0,100,0.00,,,0.07,,2013-01-08 15:53:00,
2013-01-08 08:02:00,33.0,33.0,30.09,SW,225,8.0,9.0,100,0.00,,,0.07,,2013-01-08 16:02:00,
2013-01-08 08:12:00,33.0,33.0,30.09,SW,225,8.0,9.0,100,0.00,,,0.07,,2013-01-08 16:12:00,
2013-01-08 08:22:00,32.0,32.0,30.11,SSW,203,8.0,14.0,100,0.00,,,0.07,,2013-01-08 16:22:00,
2013-01-08 08:32:00,32.0,32.0,30.10,SW,225,0.0,0.0,100,0.00,,,0.07,,2013-01-08 16:32:00,
2013-01-08 08:42:00,32.0,32.0,30.10,SW,225,0.0,0.0,100,0.00,,,0.07,,2013-01-08 16:42:00,
2013-01-08 08:52:00,32.0,32.0,30.10,SW,225,0.0,0.0,100,0.00,,,0.07,,2013-01-08 16:52:00,
2013-01-08 09:02:00,33.0,33.0,30.10,SW,225,0.0,0.0,100,0.00,,,0.07,,2013-01-08 17:02:00,
2013-01-08 09:12:00,33.0,33.0,30.10,SW,225,0.0,0.0,100,0.00,,,0.07,,2013-01-08 17:12:00,
2013-01-08 09:22:00,34.0,34.0,30.11,SW,225,0.0,0.0,100,0.00,,,0.07,,2013-01-08 17:22:00,
2013-01-08 09:32:00,34.0,34.0,30.10,WSW,248,8.0,13.0,100,0.00,,,0.07,,2013-01-08 17:32:00,
2013-01-08 09:42:00,34.0,34.0,30.10,WSW,248,8.0,13.0,100,0.00,,,0.07,,2013-01-08 17:42:00,
2013-01-08 09:53:00,33.0,33.0,30.11,SW,225,7.0,10.0,100,0.00,,,0.07,,2013-01-08 17:53:00,
2013-01-08 10:02:00,33.0,33.0,30.10,SW,225,3.0,10.0,100,0.00,,,0.07,,2013-01-08 18:02:00,
2013-01-08 10:11:00,33.0,33.0,30.10,SW,225,3.0,10.0,100,0.00,,,0.07,,2013-01-08 18:11:00,
2013-01-08 10:22:00,33.0,33.0,30.10,West,270,0.0,0.0,100,0.01,,,0.08,,2013-01-08 18:22:00,
2013-01-08 10:32:00,34.0,34.0,30.10,SW,225,0.0,0.0,100,0.01,,,0.08,,2013-01-08 18:32:00,
2013-01-08 10:42:00,34.0,34.0,30.10,SW,225,0.0,0.0,100,0.01,,,0.08,,2013-01-08 18:42:00,
2013-01-08 10:52:00,33.0,33.0,30.09,SW,225,0.0,0.0,100,0.01,,,0.08,,2013-01-08 18:52:00,
2013-01-08 11:02:00,33.0,33.0,30.08,SW,225,1.0,6.0,100,0.01,,,0.08,,2013-01-08 19:02:00,
2013-01-08 11:11:00,33.0,33.0,30.08,SW,225,1.0,6.0,100,0.01,,,0.08,,2013-01-08 19:11:00,
2013-01-08 11:22:00,33.0,33.0,30.08,SW,225,0.0,0.0,100,0.00,,,0.08,,2013-01-08 19:22:00,
2013-01-08 11:32:00,33.0,33.0,30.07,SW,225,0.0,0.0,100,0.01,,,0.08,,2013-01-08 19:32:00,
2013-01-08 11:42:00,33.0,33.0,30.07,SW,225,0.0,0.0,100,0.01,,,0.08,,2013-01-08 19:42:00,
2013-01-08 11:52:00,33.0,33.0,30.06,SW,225,0.0,0.0,100,0.01,,,0.09,,2013-01-08 19:52:00,
2013-01-08 12:02:00,33.0,33.0,30.06,SW,225,0.0,0.0,100,0.01,,,0.09,,2013-01-08 20:02:00,
2013-01-08 12:11:00,33.0,33.0,30.06,SW,225,0.0,0.0,100,0.01,,,0.09,,2013-01-08 20:11:00,
2013-01-08 12:22:00,34.0,34.0,30.04,SW,225,0.0,0.0,100,0.02,,,0.10,,2013-01-08 20:22:00,
2013-01-08 12:32:00,34.0,34.0,30.03,SW,225,0.0,0.0,100,0.01,,,0.10,,2013-01-08 20:32:00,
2013-01-08 12:42:00,34.0,34.0,30.03,SW,225,0.0,0.0,100,0.01,,,0.10,,2013-01-08 20:42:00,
2013-01-08 12:53:00,34.0,34.0,30.03,SW,225,0.0,0.0,100,0.01,,,0.10,,2013-01-08 20:53:00,
2013-01-08 13:02:00,34.0,34.0,30.01,SW,225,0.0,0.0,100,0.02,,,0.10,,2013-01-08 21:02:00,
2013-01-08 13:12:00,34.0,34.0,30.01,SW,225,0.0,0.0,100,0.02,,,0.10,,2013-01-08 21:12:00,
2013-01-08 13:22:00,33.0,33.0,30.01,SW,225,0.0,0.0,100,0.01,,,0.11,,2013-01-08 21:22:00,
2013-01-08 13:32:00,33.0,33.0,30.00,SW,225,0.0,0.0,100,0.01,,,0.11,,2013-01-08 21:32:00,
2013-01-08 13:42:00,33.0,33.0,30.00,SW,225,0.0,0.0,100,0.01,,,0.11,,2013-01-08 21:42:00,
2013-01-08 13:52:00,33.0,33.0,30.01,SW,225,0.0,0.0,100,0.01,,,0.09,,2013-01-08 21:52:00,
2013-01-08 14:02:00,33.0,33.0,30.01,SW,225,0.0,0.0,100,0.01,,,0.08,,2013-01-08 22:02:00,
2013-01-08 14:12:00,33.0,33.0,30.01,SW,225,0.0,0.0,100,0.01,,,0.08,,2013-01-08 22:12:00,
2013-01-08 14:22:00,33.0,33.0,29.99,SW,225,0.0,0.0,100,0.01,,,0.07,,2013-01-08 22:22:00,
2013-01-08 14:32:00,33.0,33.0,30.00,SSE,158,0.0,0.0,100,0.01,,,0.07,,2013-01-08 22:32:00,
2013-01-08 14:42:00,33.0,33.0,30.00,SSE,158,0.0,0.0,100,0.01,,,0.07,,2013-01-08 22:42:00,
2013-01-08 14:52:00,33.0,33.0,29.99,SSE,158,0.0,0.0,100,0.01,,,0.07,,2013-01-08 22:52:00,
2013-01-08 15:02:00,33.0,33.0,29.98,SE,135,0.0,3.0,100,0.00,,,0.07,,2013-01-08 23:02:00,
2013-01-08 15:12:00,33.0,33.0,29.98,SE,135,0.0,3.0,100,0.00,,,0.07,,2013-01-08 23:12:00,
2013-01-08 15:22:00,32.0,32.0,29.98,South,180,0.0,0.0,100,0.00,,,0.07,,2013-01-08 23:22:00,
2013-01-08 15:32:00,33.0,33.0,29.98,SE,135,0.0,0.0,100,0.00,,,0.07,,2013-01-08 23:32:00,
2013-01-08 15:42:00,33.0,33.0,29.98,SE,135,0.0,0.0,100,0.00,,,0.07,,2013-01-08 23:42:00,
2013-01-08 15:52:00,33.0,33.0,29.96,SSE,158,5.0,8.0,100,0.00,,,0.07,,2013-01-08 23:52:00,
2013-01-08 16:02:00,33.0,33.0,29.96,SSE,158,7.0,9.0,100,0.00,,,0.07,,2013-01-09 00:02:00,
2013-01-08 16:12:00,33.0,33.0,29.96,SSE,158,7.0,9.0,100,0.00,,,0.07,,2013-01-09 00:12:00,
2013-01-08 16:22:00,33.0,33.0,29.95,SE,135,0.0,0.0,100,0.01,,,0.08,,2013-01-09 00:22:00,
2013-01-08 16:32:00,33.0,33.0,29.94,South,180,8.0,12.0,100,0.01,,,0.08,,2013-01-09 00:32:00,
2013-01-08 16:42:00,33.0,33.0,29.94,South,180,8.0,12.0,100,0.01,,,0.08,,2013-01-09 00:42:00,
2013-01-08 16:52:00,33.0,33.0,29.93,North,0,0.0,0.0,100,0.01,,,0.08,,2013-01-09 00:52:00,
2013-01-08 17:01:00,33.0,33.0,29.93,North,0,0.0,0.0,100,0.01,,,0.08,,2013-01-09 01:01:00,
2013-01-08 17:11:00,33.0,33.0,29.93,North,0,0.0,0.0,100,0.01,,,0.08,,2013-01-09 01:11:00,
2013-01-08 17:22:00,33.0,33.0,29.93,North,0,0.0,0.0,100,0.01,,,0.08,,2013-01-09 01:22:00,
2013-01-08 17:32:00,34.0,34.0,29.92,North,0,0.0,0.0,100,0.00,,,0.08,,2013-01-09 01:32:00,
2013-01-08 17:42:00,34.0,34.0,29.92,North,0,0.0,0.0,100,0.00,,,0.08,,2013-01-09 01:42:00,
2013-01-08 17:52:00,34.0,34.0,29.91,North,0,0.0,0.0,100,0.00,,,0.08,,2013-01-09 01:52:00,
2013-01-08 18:02:00,34.0,34.0,29.90,North,0,0.0,0.0,100,0.00,,,0.08,,2013-01-09 02:02:00,
2013-01-08 18:12:00,34.0,34.0,29.90,North,0,0.0,0.0,100,0.00,,,0.08,,2013-01-09 02:12:00,
2013-01-08 18:22:00,35.0,35.0,29.89,South,180,12.0,13.0,100,0.00,,,0.08,,2013-01-09 02:22:00,
2013-01-08 18:32:00,36.0,36.0,29.88,South,180,12.0,15.0,100,0.00,,,0.08,,2013-01-09 02:32:00,
2013-01-08 18:42:00,36.0,36.0,29.88,South,180,12.0,15.0,100,0.00,,,0.08,,2013-01-09 02:42:00,
2013-01-08 18:52:00,36.0,36.0,29.87,SSW,203,10.0,14.0,100,0.00,,,0.08,,2013-01-09 02:52:00,
2013-01-08 19:02:00,36.0,36.0,29.87,South,180,9.0,12.0,100,0.00,,,0.08,,2013-01-09 03:02:00,
2013-01-08 19:12:00,36.0,36.0,29.87,South,180,9.0,12.0,100,0.00,,,0.08,,2013-01-09 03:12:00,
2013-01-08 19:22:00,37.0,37.0,29.86,South,180,12.0,13.0,100,0.00,,,0.08,,2013-01-09 03:22:00,
2013-01-08 19:32:00,37.0,37.0,29.86,SSW,203,13.0,21.0,100,0.00,,,0.08,,2013-01-09 03:32:00,
2013-01-08 19:42:00,37.0,37.0,29.86,SSW,203,13.0,21.0,100,0.00,,,0.08,,2013-01-09 03:42:00,
2013-01-08 19:52:00,37.0,37.0,29.85,SSW,203,12.0,15.0,100,0.00,,,0.08,,2013-01-09 03:52:00,
2013-01-08 20:02:00,38.0,38.0,29.84,SSW,203,16.0,21.0,100,0.00,,,0.08,,2013-01-09 04:02:00,
2013-01-08 20:12:00,38.0,38.0,29.84,SSW,203,16.0,21.0,100,0.00,,,0.08,,2013-01-09 04:12:00,
2013-01-08 20:22:00,38.0,38.0,29.84,SSW,203,13.0,17.0,100,0.00,,,0.08,,2013-01-09 04:22:00,
2013-01-08 20:32:00,38.0,38.0,29.84,SSW,203,13.0,17.0,100,0.00,,,0.08,,2013-01-09 04:32:00,
2013-01-08 20:42:00,38.0,38.0,29.85,SSW,203,13.0,20.0,100,0.00,,,0.08,,2013-01-09 04:42:00,
2013-01-08 20:52:00,38.0,38.0,29.85,SSW,203,13.0,20.0,100,0.00,,,0.08,,2013-01-09 04:52:00,
2013-01-08 21:03:00,39.0,39.0,29.84,SSW,203,14.0,18.0,100,0.00,,,0.08,,2013-01-09 05:03:00,
2013-01-08 21:12:00,39.0,39.0,29.84,SSW,203,14.0,18.0,100,0.00,,,0.08,,2013-01-09 05:12:00,
2013-01-08 21:22:00,38.0,38.0,29.84,SSW,203,15.0,23.0,100,0.00,,,0.08,,2013-01-09 05:22:00,
2013-01-08 21:33:00,39.0,39.0,29.84,SSW,203,13.0,16.0,100,0.00,,,0.08,,2013-01-09 05:33:00,
2013-01-08 21:42:00,39.0,39.0,29.84,SSW,203,13.0,16.0,100,0.00,,,0.08,,2013-01-09 05:42:00,
2013-01-08 21:52:00,39.0,39.0,29.83,SSW,203,14.0,17.0,100,0.00,,,0.08,,2013-01-09 05:52:00,
2013-01-08 22:02:00,39.0,39.0,29.83,SSW,203,14.0,15.0,100,0.00,,,0.07,,2013-01-09 06:02:00,
2013-01-08 22:12:00,39.0,39.0,29.83,SSW,203,14.0,15.0,100,0.00,,,0.07,,2013-01-09 06:12:00,
2013-01-08 22:22:00,40.0,40.0,29.83,SSW,203,18.0,26.0,100,0.00,,,0.07,,2013-01-09 06:22:00,
2013-01-08 22:32:00,39.0,39.0,29.83,SSW,203,13.0,22.0,100,0.00,,,0.07,,2013-01-09 06:32:00,
2013-01-08 22:42:00,39.0,39.0,29.83,SSW,203,13.0,22.0,100,0.00,,,0.07,,2013-01-09 06:42:00,
2013-01-08 22:52:00,40.0,40.0,29.82,SSW,203,17.0,25.0,100,0.00,,,0.07,,2013-01-09 06:52:00,
2013-01-08 23:02:00,40.0,40.0,29.82,SSW,203,18.0,22.0,100,0.00,,,0.07,,2013-01-09 07:02:00,
2013-01-08 23:11:00,40.0,40.0,29.82,SSW,203,18.0,22.0,100,0.00,,,0.07,,2013-01-09 07:11:00,
2013-01-08 23:22:00,40.0,40.0,29.82,SSW,203,17.0,22.0,100,0.00,,,0.07,,2013-01-09 07:22:00,
2013-01-08 23:32:00,40.0,40.0,29.82,SSW,203,17.0,23.0,100,0.00,,,0.07,,2013-01-09 07:32:00,
2013-01-08 23:42:00,40.0,40.0,29.82,SSW,203,17.0,23.0,100,0.00,,,0.07,,2013-01-09 07:42:00,
2013-01-08 23:52:00,40.0,40.0,29.82,SSW,203,15.0,18.0,100,0.00,,,0.07,,2013-01-09 07:52:00,